Aérodrome :
LOGIN :

S'inscrire | Disclaimer

   EN    FR    IT 

 










Légende :    VFR   VFR Marginal   IFR   IFR Intensif   IFR Très Intensif
Visi : 
Plafond : 
>= 8 km
>= 3000ft
5 à 8 km
1000 à 3000 ft
1500m à 5 km
500 à 1000 ft
800 à 1500m
200 à 500 ft
< 800m
< 200 ft
Symboles :   Orages  Brouillard  Fortes neiges  Fortes précipitations  Vent > 20 kt
SIGMETs :   Divers  Orages  Givrage  Turbulence  Onde Orograph.  Cendres Volcan.







- Altitude de l'aérodrome : 82 ft
- Code IATA : ALG


DAAG - Alger Houari Boumedienne

DERNIER METAR :
  • 181030Z 17008KT 140V200 CAVOK 30/06 Q1016

METARs EXPIRÉS :
  • 181000Z 17010KT CAVOK 29/07 Q1016
  • 180930Z 17005KT 130V200 CAVOK 28/07 Q1017
  • 180900Z VRB02KT CAVOK 27/07 Q1017
  • 180830Z VRB02KT 6000 NSC 25/08 Q1017

TAF TAF DAAG
Valide du 18 à 06h jusqu'au 19 à 06h UTC


180500Z 1806/1906 VRB02KT 9999 FEW026
TEMPO 1807/1810 18008KT
PROB40
TEMPO 1814/1820 FEW026CB
BECMG 1820/1823 32012KT
Pas de NOTAMs connus pour ce terrain.



MET'MAP, la Météo Aéronautique d'un coup d'oeil ! - Copyright ORBIFLY Décembre 2007 - Disclaimer

ORBIFLY MET'MAP TEAM :

Programmation & Développement : Alexandra Zaïnal
Conception & Développement : Baudouin d'Aumeries
Co-Programmation & Développement : Marc-Olivier Méhu
Soutien technique & logistique : Manuel Goepfert

Contact : metmap@orbifly.com




SOURCES & CREDITS :

   NOAA